TimeMDT,TemperatureF,Dew PointF,Humidity,Sea Level PressureIn,VisibilityMPH,Wind Direction,Wind SpeedMPH,Gust SpeedMPH,PrecipitationIn,Events,Conditions,WindDirDegrees,DateUTC
12:53 AM,34.0,23.0,64,30.12,10.0,Calm,Calm,-,N/A,,Clear,0,2013-03-31 06:53:00
1:53 AM,34.0,23.0,64,30.10,10.0,ESE,3.5,-,N/A,,Clear,120,2013-03-31 07:53:00
2:53 AM,34.0,21.9,61,30.07,10.0,ESE,5.8,-,N/A,,Clear,120,2013-03-31 08:53:00
3:53 AM,33.1,21.9,64,30.05,10.0,ESE,4.6,-,N/A,,Clear,120,2013-03-31 09:53:00
4:53 AM,32.0,23.0,69,30.03,10.0,Calm,Calm,-,N/A,,Clear,0,2013-03-31 10:53:00
5:53 AM,28.0,21.0,75,30.04,10.0,NW,6.9,-,N/A,,Clear,310,2013-03-31 11:53:00
6:53 AM,27.0,21.9,81,30.05,10.0,Calm,Calm,-,N/A,,Clear,0,2013-03-31 12:53:00
7:53 AM,30.0,24.1,79,30.07,10.0,Calm,Calm,-,N/A,,Clear,0,2013-03-31 13:53:00
8:53 AM,36.0,25.0,64,30.07,10.0,Calm,Calm,-,N/A,,Clear,0,2013-03-31 14:53:00
9:53 AM,44.1,25.0,47,30.06,10.0,Calm,Calm,-,N/A,,Clear,0,2013-03-31 15:53:00
10:53 AM,48.9,25.0,39,30.06,10.0,Calm,Calm,-,N/A,,Clear,0,2013-03-31 16:53:00
11:53 AM,55.0,25.0,31,30.05,10.0,Variable,3.5,-,N/A,,Clear,0,2013-03-31 17:53:00
12:53 PM,60.1,21.0,22,30.04,10.0,NNW,15.0,20.7,N/A,,Clear,330,2013-03-31 18:53:00
1:53 PM,62.1,21.9,21,30.02,10.0,North,19.6,25.3,N/A,,Clear,10,2013-03-31 19:53:00
2:53 PM,63.0,21.9,21,30.00,10.0,NNW,13.8,27.6,N/A,,Clear,340,2013-03-31 20:53:00
3:53 PM,62.1,21.9,21,30.00,10.0,North,16.1,25.3,N/A,,Clear,350,2013-03-31 21:53:00
4:53 PM,62.1,21.9,21,30.00,10.0,North,11.5,26.5,N/A,,Clear,360,2013-03-31 22:53:00
5:53 PM,60.1,23.0,24,30.02,10.0,North,11.5,20.7,N/A,,Clear,360,2013-03-31 23:53:00
6:53 PM,57.0,24.1,28,30.04,10.0,NNW,18.4,-,N/A,,Clear,340,2013-04-01 00:53:00
7:53 PM,52.0,24.1,34,30.05,10.0,NNW,16.1,-,N/A,,Clear,340,2013-04-01 01:53:00
8:53 PM,48.9,23.0,36,30.07,10.0,NW,13.8,-,N/A,,Clear,320,2013-04-01 02:53:00
9:53 PM,46.0,21.0,37,30.07,10.0,NW,13.8,-,N/A,,Clear,320,2013-04-01 03:53:00
10:53 PM,44.1,21.0,40,30.06,10.0,WNW,13.8,-,N/A,,Partly Cloudy,300,2013-04-01 04:53:00
11:53 PM,44.1,19.9,38,30.04,10.0,NW,15.0,-,N/A,,Scattered Clouds,320,2013-04-01 05:53:00